TIME,DELAY(SENSOR),PRES,T(CTD),SAL,OXYGEN,RAWTEMP,T(OPTODE),TCPHASE,FLUOR,BETA(BETA700),BETA(BETA412),BETA(BETA440),CDOM,C(CSC),ED(ED411.90),ED(ED443.80),ED(ED489.40),ED(ED554.70),LU(LU412.20),LU(LU443.80),LU(LU489.40),LU(LU555.00),COMP,TILTX,TILTX(TILTY),CHECK
1338133090,5805,497.6400146484375000,16.0473995208740230,36.1904983520507800,214.8007049560547000,234.1062927246093800,16.0446090698242200,33.4308395385742200,50,109,99,79,69,15449,2147472630,2147777225,2147564525,2147802733,2147313691,2147473216,2147721965,2148235803,1443,7,13,31629
1338133214,5805,486.2699890136719000,16.2187995910644530,36.2246017456054700,218.1954956054687500,228.5847015380859400,16.2124900817871100,33.1694908142089840,50,108,99,79,69,15451,2147479442,2147774857,2147564918,2147801545,2147316891,2147471195,2147719213,2148243876,1174,7,13,18159
1338133335,5803,474.9400024414062500,16.4113006591796880,36.2607994079589840,220.0901031494140600,222.2310028076172000,16.4056606292724600,32.9794502258300800,50,109,101,79,68,15449,2147476022,2147773750,2147562075,2147800731,2147314221,2147475117,2147720137,2148248146,1127,7,13,42893
1338133445,5804,464.6000061035156000,16.5307006835937500,36.2850990295410160,221.9432067871093800,218.2805023193359400,16.5257797241210940,32.8265609741210940,50,107,101,81,68,15450,2147479113,2147771666,2147563382,2147801234,2147315227,2147477467,2147716534,2148247963,1313,7,13,35387
1338133568,5800,452.9200134277344000,16.6569995880126950,36.3087997436523440,223.5471954345703000,213.7716979980468800,16.6628704071044920,32.6801490783691400,50,107,100,79,68,15450,2147481078,2147773193,2147561289,2147802788,2147314093,2147476873,2147716781,2148245924,2137,7,13,242
1338133678,5805,442.6400146484375000,16.7665996551513670,36.3317985534668000,225.3072967529297000,210.2368927001953000,16.7703609466552730,32.5404815673828100,50,107,100,79,68,15449,2147480155,2147769398,2147562806,2147798592,2147311259,2147474450,2147716004,2148240384,2588,7,13,7090
1338133802,5801,431.2699890136719000,16.8591003417968750,36.3498992919921900,227.0018005371093800,207.3096008300781200,16.8593807220459000,32.4135398864746100,50,107,101,80,68,15449,2147482432,2147772690,2147560786,2147803410,2147316059,2147473792,2147717421,2148244699,3328,7,13,62274
1338133923,5803,420.4100036621094000,16.9825000762939450,36.3750000000000000,229.1811981201172000,203.2411041259765600,16.9831104278564450,32.2476692199707000,50,107,100,80,67,15448,2147480192,2147770541,2147561600,2147800045,2147313408,2147478080,2147717705,2148242779,367,7,13,1631
1338134055,5803,409.1600036621094000,17.0839004516601560,36.3926010131835940,229.0957031250000000,199.9568939208984400,17.0830001831054700,32.2065696716308600,50,109,99,79,68,15450,2147483062,2147770779,2147559433,2147800676,2147311561,2147478226,2147714761,2148240109,487,7,13,28069
1338134189,5807,398.1900024414062500,17.1884994506835940,36.4159011840820300,232.2566986083984400,196.5639953613281200,17.1861991882324220,32.0035018920898440,50,106,99,80,68,15449,2147482066,2147769910,2147561408,2147801984,2147310884,2147475053,2147715081,2148246272,75,7,13,31787
1338134321,5804,387.6300048828125000,17.2819995880126950,36.4334983825683600,233.8562927246093800,193.5867004394531200,17.2767696380615230,31.8843307495117200,50,109,101,80,66,15450,2147482678,2147769490,2147562468,2147799323,2147315547,2147475510,2147712914,2148246710,644,7,13,40320
1338134467,5804,376.5599975585937500,17.3451004028320300,36.4460983276367200,234.9963989257812500,191.4803009033203000,17.3408508300781250,31.8003692626953120,50,109,100,80,67,15450,2147483382,2147771885,2147562221,2147797750,2147315913,2147476470,2147714834,2148243721,999,7,13,19778
1338134610,5803,365.8299865722656000,17.4249992370605470,36.4604988098144500,235.1661071777343800,188.8132019042968800,17.4220008850097660,31.7557201385498050,50,108,101,79,66,15452,2147485403,2147770505,2147564882,2147795812,2147315465,2147474761,2147709165,2148243026,1242,7,13,39583
1338134775,5804,352.2799987792969000,17.4601001739501950,36.4636993408203100,233.6640930175781200,187.6060028076172000,17.4587306976318360,31.8121109008789060,49,107,99,80,67,15450,2147486436,2147771062,2147567058,2147796745,2147321014,2147476653,2147713984,2148244937,1805,6,13,36457
1338134885,5805,341.4200134277344000,17.5776996612548830,36.4870986938476560,235.0307006835937500,183.8712005615234400,17.5723800659179700,31.6949901580810550,50,107,99,79,67,15451,2147483602,2147771940,2147566482,2147798226,2147316141,2147476443,2147715008,2148245568,2105,7,13,36608
1338134995,5802,330.3900146484375000,17.6228008270263670,36.4963989257812500,236.6002044677734400,182.2317047119140600,17.6222705841064450,31.5973491668701170,50,108,100,81,67,15449,2147490550,2147769545,2147571794,2147796882,2147314240,2147479716,2147721161,2148242816,2754,7,12,51201
1338135107,5805,318.8800048828125000,17.6944007873535160,36.5099983215332000,237.7696075439453000,179.7790985107422000,17.6969203948974600,31.5084800720214840,50,110,100,79,66,15447,2147484525,2147772370,2147575158,2147795300,2147312950,2147480429,2147718244,2148240411,2875,7,13,60735
1338135217,5802,307.3800048828125000,17.7964000701904300,36.5224990844726560,236.8179016113281200,176.7525939941406200,17.7890396118164060,31.5129508972167970,50,113,101,81,67,15441,2147485897,2147771081,2147579821,2147796809,2147315318,2147483620,2147722066,2148242907,3480,7,13,27014
1338135316,5803,296.6900024414062500,17.8367996215820300,36.5321006774902340,238.1338958740234400,174.9512939453125000,17.8438796997070300,31.4257907867431640,50,110,100,81,67,15441,2147489316,2147774354,2147588260,2147797888,2147314230,2147481664,2147725531,2148244196,335,7,12,42379
1338135431,5801,285.4400024414062500,17.8976001739501950,36.5411987304687500,238.4328002929687500,173.2102966308593800,17.8968791961669920,31.3883495330810550,49,110,101,81,66,15439,2147489718,2147778166,2147595163,2147794962,2147315346,2147489746,2147734811,2148243081,246,7,13,13129
1338135563,5802,274.3699951171875000,17.9613990783691400,36.5489997863769500,238.1208038330078000,171.1351013183593800,17.9600696563720700,31.3752193450927730,50,113,100,81,68,15434,2147489408,2147783250,2147611337,2147795392,2147315529,2147487131,2147746468,2148247972,804,7,13,34070
1338135698,5802,263.4299926757812500,18.0144996643066400,36.5579986572265600,238.1936950683593800,169.3872985839843800,18.0132904052734380,31.3483600616455080,50,111,101,82,66,15436,2147488155,2147786450,2147628809,2147793298,2147313033,2147491209,2147754358,2148244251,526,7,13,42469
1338135841,5802,252.3300018310547000,18.0727996826171880,36.5638008117675800,237.2210998535156200,167.5708007812500000,18.0685997009277340,31.3701591491699220,50,112,101,82,66,15436,2147486454,2147798409,2147656073,2147794166,2147319076,2147496356,2147768457,2148244854,820,7,13,35926
1338136006,5801,239.7700042724609400,18.1135997772216800,36.5600013732910160,235.0615997314453000,165.9696960449218800,18.1173706054687500,31.4518108367919920,50,113,102,81,67,15432,2147490166,2147810212,2147698578,2147792411,2147315136,2147511286,2147794678,2148246674,1416,7,13,65528
1338136135,5803,228.2799987792968800,18.2495994567871100,36.5713996887207000,232.2205963134765600,161.5823059082031200,18.2510108947753900,31.5303993225097660,50,117,102,82,67,15429,2147494290,2147832740,2147748882,2147796571,2147319588,2147525284,2147827510,2148246464,1280,6,12,51357
1338136256,5805,217.7299957275390600,18.3703002929687500,36.5852012634277340,230.1130065917968800,157.4958953857422000,18.3755207061767580,31.5786304473876950,50,117,101,82,67,15425,2147499849,2147861595,2147823021,2147794048,2147319104,2147536557,2147873298,2148254902,885,7,12,2407
1338136390,5799,206.5000000000000000,18.5884990692138670,36.5924987792968750,228.0484924316406200,150.6372985839843800,18.5845603942871100,31.5881996154785160,51,117,103,83,67,15424,2147503094,2147903890,2147922496,2147796077,2147322230,2147564918,2147926454,2148252443,807,7,13,55135
1338136500,5802,197.6100006103515600,18.9066009521484380,36.5999984741210940,230.4537048339843800,140.0426940917968800,18.9076595306396500,31.3281192779541000,51,121,104,81,67,15416,2147511707,2147948873,2148032064,2147793005,2147323309,2147597476,2147992018,2148256155,347,6,13,61025
1338136555,5805,193.3500061035156200,19.0261993408203120,36.6062011718750000,234.6448059082031200,136.2648010253906200,19.0229301452636720,31.0753803253173830,50,119,104,81,66,15424,2147516672,2147985298,2148101238,2147793718,2147325403,2147617526,2148032237,2148259602,3555,7,13,14164
1338136610,5804,189.1399993896484400,19.0846996307373050,36.6068000793457000,238.7969055175781200,133.3601074218750000,19.1115894317626950,30.8406105041503900,51,118,103,83,65,15421,2147526464,2148011501,2148170660,2147794486,2147330724,2147636589,2148077229,2148259611,3380,6,12,47157
1338136684,5803,184.2100067138672000,19.3101005554199220,36.6095008850097660,248.9277954101562500,127.1778030395507800,19.3003406524658200,30.2982597351074220,50,124,103,84,64,15415,2147537618,2148052123,2148262957,2147796873,2147331584,2147672438,2148134537,2148263890,2475,7,13,63703
1338136750,5802,180.1300048828125000,19.3474998474121100,36.6138992309570300,254.8605041503906200,125.7002029418945300,19.3454704284667970,30.0191707611084000,50,120,104,82,63,15418,2147542774,2148090048,2148348653,2147794395,2147327515,2147699949,2148190454,2148265764,2308,7,13,52898
1338136816,5801,175.7700042724609400,19.3654994964599600,36.6115989685058600,258.8792114257812500,125.1845016479492200,19.3612194061279300,29.8408508300781250,52,119,105,83,62,15415,2147550409,2148130038,2148441170,2147792941,2147337609,2147732297,2148254518,2148267053,1960,7,12,63087
1338136871,5805,171.9400024414062500,19.3645992279052730,36.6106986999511700,260.6611938476562500,125.1781005859375000,19.3614196777343750,29.7654800415039060,53,122,104,82,63,15417,2147565604,2148182784,2148553545,2147794496,2147341120,2147772918,2148324214,2148273088,2023,7,13,46247
1338136926,5802,167.8800048828125000,19.3553009033203120,36.6054992675781250,261.1629943847656000,125.4349975585937500,19.3535709381103500,29.7477092742919920,54,119,104,82,63,15409,2147574902,2148236553,2148679213,2147794441,2147349750,2147809344,2148401078,2148282761,2431,7,13,39224
1338137003,5802,162.3399963378906200,19.3586006164550780,36.6043014526367200,261.7348022460937500,125.3508987426757800,19.3561401367187500,29.7226696014404300,54,123,103,83,63,15409,2147595556,2148305152,2148820708,2147793609,2147358226,2147862418,2148498020,2148283748,3103,7,13,6834
1338137058,5804,158.7400054931640600,19.3593006134033200,36.6045989990234400,261.8471069335937500,125.3182983398437500,19.3571395874023440,29.7176494598388670,55,121,104,84,63,15413,2147609398,2148353307,2148924452,2147795821,2147368091,2147900004,2148571986,2148287360,3366,7,12,10976
1338137113,5800,155.1600036621093800,19.3605995178222660,36.6044998168945300,262.4328918457031000,125.2632980346679700,19.3588199615478500,29.6924705505371100,56,126,104,84,62,15416,2147632466,2148437156,2149104731,2147797202,2147384722,2147968612,2148683611,2148296484,3436,7,13,45523
1338137179,5803,150.7899932861328000,19.3675003051757800,36.6050987243652340,262.7815856933594000,125.0800018310546900,19.3644104003906250,29.6755790710449220,59,121,103,84,64,15408,2147675803,2148596992,2149440713,2147799341,2147403611,2148063762,2148875547,2148307273,3578,7,13,27560
1338137234,5804,147.1499938964843800,19.3726005554199220,36.6055984497070300,263.0309143066406000,124.9291992187500000,19.3690204620361330,29.6631202697753900,61,124,105,84,64,15400,2147708937,2148716708,2149691465,2147803328,2147428800,2148151515,2149034112,2148317796,166,7,13,6035
1338137311,5805,142.6900024414062500,19.3754997253417970,36.6064987182617200,263.2416992187500000,124.7779998779296900,19.3736400604248050,29.6526603698730470,65,127,106,84,63,15401,2147759597,2148869449,2149985444,2147806784,2147454637,2148259648,2149220946,2148330093,507,7,13,14496
1338137410,5804,138.7799987792968800,19.3714008331298830,36.6035003662109400,263.2861938476562500,124.8974990844726600,19.3699893951416000,29.6522102355957030,65,130,106,85,64,15386,2147803419,2148983332,2150181028,2147809115,2147478939,2148339785,2149344996,2148337398,686,7,12,51940
1338137531,5805,135.0500030517578000,19.3715000152587900,36.6031990051269500,263.2388000488281000,124.9098968505859400,19.3696098327636720,29.6545104980468750,70,131,105,85,62,15389,2147842230,2149074843,2150288493,2147807734,2147496987,2148382582,2149385526,2148339520,629,7,13,32913
1338137661,5803,130.7200012207031200,19.3784999847412100,36.6032981872558600,263.3128051757812500,124.7184982299804700,19.3754596710205080,29.6488304138183600,76,131,107,87,63,15377,2147995446,2149512292,2151159798,2147819830,2147570377,2148637924,2149834422,2148372580,570,7,13,44795
1338137760,5806,126.8399963378906200,19.3743991851806640,36.6002998352050800,263.2047119140625000,124.8167037963867200,19.3724594116210940,29.6546192169189450,78,133,105,85,64,15373,2148080694,2149691419,2151438290,2147828224,2147612790,2148755346,2150031798,2148388571,580,7,13,33609
1338137870,5805,122.6900024414062500,19.3770008087158200,36.5992012023925800,263.1612854003906000,124.7581024169921900,19.3742504119873050,29.6556301116943360,85,136,109,87,64,15368,2148271296,2150174592,2152352146,2147842029,2147700160,2149032850,2150521188,2148418560,531,7,13,13824
1338137959,5804,118.5899963378906200,19.3766002655029300,36.5982017517089840,263.3656921386719000,124.7598037719726600,19.3742008209228500,29.6472892761230470,85,134,107,86,63,15362,2148486436,2150670482,2153261101,2147863140,2147801517,2149325440,2151033545,2148460571,740,7,13,15471
1338138036,5805,114.2699966430664000,19.3899002075195300,36.5998001098632800,263.8382873535156000,124.3388977050781200,19.3870506286621100,29.6222591400146500,99,138,107,86,63,15342,2148746331,2151223076,2154234779,2147891392,2147928475,2149627876,2151543067,2148502747,844,7,13,59671
1338138102,5802,110.3899993896484400,19.3994007110595700,36.6008987426757800,263.9664001464844000,124.0784988403320300,19.3950099945068360,29.6135292053222660,103,147,108,86,65,15328,2149050185,2151866898,2155349056,2147922669,2148061732,2149935990,2152053211,2148548489,792,7,13,2373
1338138168,5803,106.4199981689453100,19.4055004119873050,36.5988006591796900,265.0559082031250000,123.8224029541015600,19.4028301239013670,29.5652198791503900,112,149,109,88,63,15318,2149450898,2152660745,2156661924,2147970057,2148229284,2150299300,2152655067,2148606025,873,7,13,45804
1338138237,5802,102.1800003051757800,19.4048004150390620,36.5937004089355500,265.5179138183594000,123.7589035034179700,19.4047698974609380,29.5454292297363280,125,150,109,87,65,15293,2150048950,2153834221,2158531794,2148040146,2148477924,2150793691,2153459163,2148693001,976,7,13,19967
1338138303,5801,98.0500030517578100,19.4220008850097660,36.5932998657226560,265.7085876464844000,123.2957000732421900,19.4189205169677730,29.5316505432128900,126,155,110,87,64,15285,2150866130,2155377024,2160885129,2148133851,2148791789,2151424310,2154447085,2148796946,1028,7,13,65137
1338138358,5800,94.5800018310546900,19.4337005615234380,36.5938987731933600,266.3692932128906000,122.9000015258789000,19.4310092926025400,29.4996204376220700,129,150,110,88,64,15275,2151735424,2156956800,2163226889,2148237568,2149128457,2152055332,2155399387,2148906971,1016,7,13,39635
1338138413,5805,91.1600036621093800,19.4524002075195300,36.5934982299804700,267.7239990234375000,122.2919998168945300,19.4495906829834000,29.4364700317382800,143,152,108,87,65,15250,2152917129,2159041398,2166172050,2148368365,2149565952,2152830418,2156525878,2149054765,866,7,12,21803
1338138468,5801,87.7600021362304700,19.4645004272460940,36.5943984985351560,269.3020019531250000,121.8731002807617200,19.4623908996582030,29.3673496246337900,142,156,112,89,64,15235,2154489389,2161766299,2169825993,2148552384,2150128576,2153794825,2157863853,2149237065,677,7,13,8411
1338138523,5804,84.4400024414062500,19.4750995635986330,36.5914001464843750,270.7944946289062500,121.4710006713867200,19.4746704101562500,29.3020305633544920,141,154,108,88,65,15224,2156351853,2164878052,2173912932,2148764397,2150805888,2154920338,2159395529,2149454089,545,7,13,23289
1338138597,5804,80.4000015258789000,19.4815006256103500,36.5918006896972660,272.3033142089844000,121.2741012573242200,19.4806900024414060,29.2392902374267580,144,159,109,89,63,15214,2159379337,2169815149,2180040310,2149115730,2151924516,2156728457,2161691922,2149804690,783,7,13,38512
1338138652,5806,77.8499984741211000,19.4964008331298830,36.5904006958007800,272.5544128417969000,120.8915023803711000,19.4923801422119140,29.2242908477783200,150,162,110,88,63,15192,2161991872,2173915163,2184970130,2149409243,2152903360,2158278829,2163642486,2150088256,960,7,13,39979
1338138707,5804,75.4000015258789000,19.5251007080078120,36.5918998718261700,273.4406127929687500,119.9884033203125000,19.5199794769287100,29.1776409149169920,140,161,111,89,63,15174,2165121627,2178773613,2190814802,2149786523,2154071890,2160179867,2166030601,2150432091,1150,7,13,58109
1338138762,5805,72.9499969482421900,19.5555992126464840,36.5914001464843750,274.5801086425781000,118.9856033325195300,19.5506191253662100,29.1197891235351560,134,160,112,88,65,15158,2168662765,2183994112,2196563181,2150197906,2155458733,2162251794,2168423762,2150806747,1200,7,13,51304
1338138817,5803,70.5199966430664000,19.5779991149902340,36.5924987792968750,275.4274902343750000,118.3063964843750000,19.5713806152343750,29.0779304504394530,116,160,109,89,63,15179,2172615168,2189640996,2202721545,2150686244,2157125769,2164779629,2171380708,2151229778,1211,7,13,45288
1338138872,5803,68.0500030517578100,19.6063995361328120,36.5927009582519500,275.8236999511719000,117.3240966796875000,19.6014003753662100,29.0500297546386720,109,171,113,91,64,15174,2177240356,2196005339,2209531035,2151313481,2159033024,2167604242,2174649270,2151714468,1357,7,13,13056
1338138929,5804,65.4599990844726600,19.6268005371093750,36.5923995971679700,276.2622985839844000,116.5678024291992200,19.6245193481445300,29.0232696533203120,104,160,111,90,64,15177,2182331437,2202706998,2216573714,2152032987,2161288676,2170895433,2178319003,2152246701,1823,7,13,54566
1338138984,5804,62.8899993896484400,19.7122001647949220,36.5914993286132800,277.6069030761719000,113.4641036987304700,19.7194099426269530,28.9316291809082030,95,153,112,91,64,15183,2187669568,2209307565,2223146889,2152881517,2163996699,2174759853,2182422756,2152829037,2308,7,13,35879
1338139039,5804,60.4399986267089840,19.8374996185302730,36.5932006835937500,279.2716064453125000,110.1343002319336000,19.8212509155273440,28.8250904083251950,88,155,113,92,64,15168,2193375268,2216538697,2231024877,2153948425,2166952475,2178869056,2186752256,2153454464,2315,7,13,39250
1338139094,5804,58.3100013732910160,19.8554992675781250,36.5955009460449200,280.1630859375000000,109.1704025268554700,19.8507308959960940,28.7786293029785160,89,160,111,89,63,15153,2198572297,2222411821,2236545225,2154801371,2170017371,2182967707,2190807515,2154021147,2589,7,13,12719
1338139149,5804,56.3600006103515600,19.8642997741699220,36.5970993041992200,280.7000122070312500,108.6574020385742200,19.8664302825927730,28.7516098022460940,85,158,112,90,61,15131,2204487341,2229539181,2244047232,2155986916,2173227620,2187299181,2195171529,2154672896,2577,6,13,60460
1338139204,5805,54.5800018310546900,19.9680995941162100,36.5942993164062500,280.5421142578125000,105.5076980590820300,19.9627990722656250,28.7181491851806640,83,156,112,92,60,15167,2210895296,2236779410,2251484790,2157191177,2176804443,2191832950,2199596854,2155432411,2248,7,13,34918
1338139365,5803,50.3199996948242200,20.3750000000000000,36.6255989074707000,277.6426086425781000,92.2797088623046900,20.3678894042968750,28.6640491485595700,72,152,114,92,62,15173,2227560822,2254938678,2268867968,2160536118,2187864740,2205686345,2212497033,2157316763,2543,7,13,45234
1338139399,5801,49.5099983215332000,20.4552993774414060,36.6286010742187500,277.0769042968750000,89.8756027221679700,20.4415798187255860,28.6559391021728500,71,150,114,89,61,15169,2232459309,2260688731,2274800868,2161721819,2191355904,2209974409,2216523282,2157953398,2449,7,13,54790
1338139480,5802,47.7400016784668000,20.5909996032714840,36.6385993957519500,276.0143127441406000,85.2617187500000000,20.5830593109130860,28.6394004821777340,66,156,112,89,60,15178,2241448969,2270992923,2285358281,2163220598,2198321554,2218482505,2224074029,2158954130,2364,6,13,27013
1338139583,5805,45.7700004577636700,20.6296997070312500,36.6441001892089840,275.8746948242187500,83.5991516113281200,20.6340503692626950,28.6240806579589840,67,148,112,88,60,15186,2253766875,2284433764,2298765458,2166523931,2208795821,2230877659,2234869750,2160614217,2586,7,13,30833
1338139640,5803,43.4900016784668000,20.6784000396728500,36.6493988037109400,275.5582885742187500,81.8847579956054700,20.6866493225097660,28.6150608062744140,63,152,112,89,61,15182,2265557568,2296378642,2310643739,2170347099,2218794340,2241956736,2243987958,2162284050,2602,7,13,186
1338139685,5800,41.5299987792968750,20.7287006378173830,36.6529998779296900,275.1129150390625000,80.1741867065429700,20.7391490936279300,28.6110095977783200,64,153,116,92,60,15194,2276937462,2308208054,2322425773,2173880466,2229718921,2254504100,2255066953,2164234560,2387,7,13,10041
1338139730,5805,39.5699996948242200,20.8026008605957030,36.6623992919921900,274.8819885253906000,78.1780319213867200,20.8004207611084000,28.5951499938964840,61,151,112,89,64,15185,2289829430,2321689371,2336215049,2177972918,2241350537,2267126665,2265681554,2166205760,2366,7,13,45063
1338139775,5803,37.5699996948242200,20.8115005493164060,36.6618003845214840,274.5564880371094000,77.6588516235351600,20.8163509368896500,28.6013698577880860,60,147,111,89,61,15195,2302730532,2334114560,2348361243,2183111085,2254055250,2280985929,2277380662,2168622482,2429,7,13,50031
1338139820,5803,35.5600013732910160,20.8132991790771500,36.6417999267578100,274.5939941406250000,77.3402099609375000,20.8261394500732420,28.5960006713867200,60,150,112,90,59,15186,2318303232,2349880548,2364408429,2188755876,2267121426,2295051931,2288895177,2171090697,2568,7,13,22793
1338139868,5804,33.5000000000000000,20.8574008941650400,36.6357002258300800,274.1160888671875000,75.9408187866211000,20.8691005706787100,28.5972309112548830,59,149,111,90,59,15195,2326839533,2357062537,2370266688,2193922925,2279251062,2307380617,2297997202,2172978925,3148,7,13,65257
1338139913,5805,31.6299991607666000,20.9393997192382800,36.6212997436523440,273.8045959472656000,73.4518432617187500,20.9455394744873050,28.5783901214599600,59,148,113,88,61,15195,2334729609,2363338934,2376476580,2198378121,2286347995,2312831478,2300843172,2174019977,3404,8,12,44730
1338139958,5806,29.8299999237060550,20.9999008178710940,36.5984001159668000,273.4486083984375000,71.4266586303711000,21.0077590942382800,28.5670204162597660,57,147,111,88,57,15205,2349110546,2379534976,2394761718,2205902637,2297754377,2323309485,2308288521,2176922194,330,7,13,60613
1338140015,5804,27.7399997711181640,21.0387001037597660,36.5816001892089840,272.7746887207031000,69.9302062988281200,21.0537395477294920,28.5749397277832030,56,148,113,89,58,15205,2284905728,2297575862,2298962633,2183907264,2270279049,2288079094,2272047040,2168852763,296,8,13,14938
1338140072,5799,25.6299991607666000,21.0855998992919920,36.5632019042968750,272.2336120605469000,67.8379516601562500,21.1180400848388670,28.5701999664306640,56,145,111,89,56,15208,2354658806,2377324726,2388633728,2214747776,2320132580,2344601590,2324280731,2180528868,3594,6,12,53627
